| time (UTC) | temp C | wind direction | speed KPH | gust KPH | rain 1hr cm | rain 24hr cm | rain mn cm | humidity % | barometer mb |
| 20260506081512 | 7 | 360 | 1.6 | 8.0 | 0.05 | 1.40 | 0.38 | 96 | 1005.5 |
| 20260506073010 | 6 | 5 | 1.6 | 8.0 | 0.00 | 1.37 | 0.33 | 96 | 1005.2 |
| 20260506071514 | 6 | 29 | 4.8 | 12.9 | 0.03 | 1.37 | 0.33 | 96 | 1005.0 |
| 20260506061504 | 6 | 5 | 1.6 | 9.7 | 0.05 | 1.35 | 0.33 | 96 | 1004.6 |
| 20260506044559 | 7 | 29 | 4.8 | 9.7 | 0.05 | 1.27 | 0.25 | 96 | 1004.6 |
| 20260506043052 | 7 | 45 | 1.6 | 6.4 | 0.08 | 1.27 | 0.25 | 96 | 1004.6 |
| 20260506041603 | 7 | 346 | 3.2 | 8.0 | 0.08 | 1.27 | 0.23 | 96 | 1004.6 |
| 20260506040048 | 7 | 355 | 1.6 | 6.4 | 0.08 | 1.24 | 0.23 | 96 | 1004.6 |
| 20260506034548 | 7 | 9 | 1.6 | 9.7 | 0.10 | 1.24 | 0.20 | 96 | 1004.6 |
| 20260506033046 | 7 | 5 | 4.8 | 8.0 | 0.08 | 1.22 | 0.18 | 96 | 1004.7 |
| 20260506031547 | 7 | 24 | 1.6 | 9.7 | 0.05 | 1.19 | 0.15 | 96 | 1004.7 |
| 20260506030043 | 7 | 360 | 1.6 | 6.4 | 0.05 | 1.17 | 0.15 | 96 | 1004.8 |
| 20260506024543 | 7 | 360 | 1.6 | 4.8 | 0.00 | 1.17 | 0.10 | 96 | 1004.9 |
| 20260506023042 | 7 | 36 | 3.2 | 6.4 | 0.03 | 1.17 | 0.10 | 96 | 1005.0 |
| 20260506021541 | 7 | 355 | 3.2 | 8.0 | 0.03 | 1.17 | 0.10 | 96 | 1004.9 |
| 20260506020038 | 7 | 5 | 4.8 | 8.0 | 0.05 | 1.17 | 0.10 | 96 | 1005.0 |
| 20260506014546 | 7 | 41 | 1.6 | 8.0 | 0.05 | 1.19 | 0.10 | 96 | 1005.2 |
| 20260506013038 | 7 | 30 | 1.6 | 8.0 | 0.03 | 1.17 | 0.08 | 96 | 1005.3 |
| 20260506011539 | 7 | 29 | 3.2 | 8.0 | 0.05 | 1.17 | 0.08 | 96 | 1005.4 |
| 20260506010033 | 7 | 38 | 1.6 | 8.0 | 0.03 | 1.17 | 0.05 | 96 | 1005.4 |
| 20260506004539 | 7 | 13 | 0.0 | 8.0 | 0.03 | 1.17 | 0.05 | 96 | 1005.5 |
| 20260506003030 | 7 | 11 | 3.2 | 8.0 | 0.03 | 1.17 | 0.05 | 96 | 1005.7 |
| 20260506001528 | 7 | 5 | 1.6 | 6.4 | 0.00 | 1.14 | 0.05 | 96 | 1005.8 |
| 20260506000035 | 7 | 36 | 3.2 | 8.0 | 0.00 | 1.14 | 0.05 | 96 | 1005.9 |
| 20260505234524 | 7 | 74 | 1.6 | 8.0 | 0.00 | 1.14 | 0.05 | 96 | 1006.1 |
| 20260505233022 | 7 | 55 | 0.0 | 4.8 | 0.03 | 1.14 | 0.05 | 96 | 1006.2 |
| 20260505231523 | 7 | 55 | 1.6 | 6.4 | 0.03 | 1.14 | 0.05 | 96 | 1006.2 |
| 20260505230020 | 7 | 22 | 0.0 | 4.8 | 0.05 | 1.14 | 0.05 | 96 | 1006.2 |
| 20260505224532 | 7 | 32 | 4.8 | 8.0 | 0.05 | 1.14 | 0.05 | 96 | 1006.3 |
| 20260505223027 | 8 | 44 | 1.6 | 6.4 | 0.05 | 1.12 | 0.03 | 96 | 1006.4 |
| 20260505221518 | 8 | 24 | 1.6 | 6.4 | 0.08 | 1.12 | 0.03 | 96 | 1006.4 |
| 20260505220027 | 8 | 32 | 1.6 | 6.4 | 0.08 | 1.09 | 0.00 | 96 | 1006.4 |
| 20260505214521 | 8 | 17 | 1.6 | 6.4 | 0.08 | 1.09 | 1.09 | 96 | 1006.5 |
| 20260505213015 | 8 | 23 | 3.2 | 6.4 | 0.13 | 1.07 | 1.07 | 96 | 1006.6 |
| 20260505211513 | 8 | 25 | 1.6 | 4.8 | 0.18 | 1.04 | 1.04 | 96 | 1006.7 |
| 20260505210012 | 8 | 342 | 3.2 | 4.8 | 0.20 | 1.02 | 1.02 | 96 | 1006.7 |
| 20260505204520 | 8 | 21 | 1.6 | 4.8 | 0.20 | 0.99 | 0.99 | 96 | 1006.8 |
| 20260505203011 | 8 | 19 | 3.2 | 6.4 | 0.15 | 0.94 | 0.94 | 96 | 1006.9 |
| 20260505201510 | 8 | 5 | 1.6 | 3.2 | 0.10 | 0.86 | 0.86 | 96 | 1006.9 |
| 20260505200010 | 8 | 5 | 3.2 | 6.4 | 0.08 | 0.81 | 0.81 | 96 | 1006.7 |
| 20260505194509 | 8 | 56 | 3.2 | 6.4 | 0.10 | 0.79 | 0.79 | 95 | 1006.7 |
| 20260505193025 | 8 | 55 | 1.6 | 8.0 | 0.13 | 0.79 | 0.79 | 95 | 1006.5 |
| 20260505191506 | 8 | 9 | 4.8 | 9.7 | 0.15 | 0.76 | 0.76 | 95 | 1006.5 |
| 20260505190011 | 8 | 26 | 3.2 | 8.0 | 0.15 | 0.71 | 0.71 | 95 | 1006.5 |
| 20260505184504 | 8 | 20 | 3.2 | 8.0 | 0.13 | 0.71 | 0.71 | 95 | 1006.4 |
| 20260505183004 | 9 | 25 | 1.6 | 6.4 | 0.13 | 0.66 | 0.66 | 95 | 1006.4 |
| 20260505181501 | 9 | 35 | 3.2 | 6.4 | 0.10 | 0.61 | 0.61 | 95 | 1006.5 |
| 20260505180059 | 9 | 26 | 1.6 | 4.8 | 0.15 | 0.61 | 0.61 | 95 | 1006.4 |
| 20260505174558 | 9 | 18 | 3.2 | 8.0 | 0.15 | 0.61 | 0.58 | 95 | 1006.4 |
| 20260505173056 | 9 | 39 | 0.0 | 6.4 | 0.15 | 0.56 | 0.53 | 95 | 1006.5 |
| 20260505171555 | 10 | 23 | 3.2 | 8.0 | 0.23 | 0.53 | 0.51 | 95 | 1006.5 |
| 20260505170104 | 10 | 61 | 4.8 | 9.7 | 0.23 | 0.48 | 0.46 | 95 | 1006.6 |
| 20260505164551 | 10 | 28 | 3.2 | 9.7 | 0.25 | 0.48 | 0.43 | 95 | 1006.7 |
| 20260505163057 | 10 | 39 | 1.6 | 8.0 | 0.23 | 0.43 | 0.38 | 95 | 1006.8 |
| 20260505161652 | 10 | 61 | 4.8 | 8.0 | 0.15 | 0.38 | 0.33 | 95 | 1006.8 |
| 20260505153102 | 10 | 64 | 3.2 | 12.9 | 0.00 | 0.23 | 0.15 | 95 | 1006.9 |
| 20260505151547 | 11 | 20 | 6.4 | 11.3 | 0.00 | 0.23 | 0.15 | 94 | 1006.8 |
| 20260505150106 | 11 | 360 | 6.4 | 9.7 | 0.00 | 0.23 | 0.15 | 94 | 1006.8 |
| 20260505124536 | 12 | 90 | 3.2 | 8.0 | 0.00 | 0.48 | 0.15 | 88 | 1007.5 |
| 20260505123049 | 13 | 65 | 1.6 | 6.4 | 0.00 | 0.48 | 0.15 | 88 | 1007.6 |
| 20260505121535 | 12 | 106 | 1.6 | 6.4 | 0.00 | 0.48 | 0.15 | 87 | 1007.6 |
| 20260505120043 | 12 | 19 | 3.2 | 6.4 | 0.00 | 0.48 | 0.15 | 89 | 1007.7 |
| 20260505114539 | 12 | 19 | 1.6 | 6.4 | 0.00 | 0.48 | 0.15 | 90 | 1007.7 |
| 20260505113128 | 12 | 24 | 1.6 | 4.8 | 0.00 | 0.48 | 0.15 | 90 | 1007.9 |
| 20260505111525 | 12 | 24 | 1.6 | 4.8 | 0.00 | 0.48 | 0.15 | 90 | 1008.0 |
| 20260505101519 | 12 | 27 | 0.0 | 0.0 | 0.03 | 0.48 | 0.15 | 94 | 1008.3 |
| 20260505100016 | 11 | 27 | 0.0 | 1.6 | 0.05 | 0.48 | 0.15 | 94 | 1008.4 |
| 20260505094514 | 11 | 27 | 0.0 | 3.2 | 0.05 | 0.48 | 0.15 | 93 | 1008.4 |
| 20260505093014 | 11 | 27 | 0.0 | 4.8 | 0.08 | 0.48 | 0.15 | 94 | 1008.4 |
| 20260505091513 | 11 | 27 | 0.0 | 4.8 | 0.05 | 0.43 | 0.13 | 93 | 1008.5 |
| 20260505090012 | 11 | 188 | 0.0 | 3.2 | 0.05 | 0.43 | 0.13 | 93 | 1008.6 |
| 20260505084514 | 11 | 188 | 0.0 | 3.2 | 0.03 | 0.43 | 0.10 | 93 | 1008.6 |
| 20260505083013 | 11 | 188 | 0.0 | 3.2 | 0.00 | 0.41 | 0.08 | 93 | 1008.6 |